Wind_Speed
4 3 3 3 3 3 4 3 3 6 11 13 16 15 16 14 13 13 11 13 15 15 19 23 24 21 19 18 17 19 19 20 21 21 10 8 9 15 21 21 21 20 21 21 20 19 21 22 16
6 5 5 5 4 5 4 4 4 4 5 7 9 9 9 10 11 12 13 13 14 15 18 19 22 24 23 22 18 16 17 19 21 23 22 14 12 11 14 21 22 21 22 23 23 23 23 21 21
8 6 6 7 7 7 6 7 8 7 7 8 9 10 11 12 10 9 10 13 14 15 17 18 19 20 22 22 21 22 21 21 21 23 22 20 20 18 17 16 18 24 26 26 27 27 26 25 26
8 8 7 8 10 10 9 9 9 11 11 11 12 12 14 15 16 17 16 16 17 18 19 21 21 21 23 24 22 22 23 23 23 23 26 25 24 24 23 21 21 20 22 29 32 30 29 29 27
7 6 7 8 10 11 13 13 12 11 11 12 13 16 17 18 18 19 20 21 23 23 23 24 25 26 26 26 27 28 27 27 29 28 26 26 26 27 28 26 24 24 24 23 27 35 34 33 31
9 9 8 9 10 9 11 13 13 14 15 16 16 17 18 19 21 22 23 24 25 26 27 28 28 30 31 31 32 32 32 32 33 32 32 31 32 31 30 31 31 28 29 28 29 29 33 37 36
15 12 11 11 12 13 13 14 15 15 17 18 18 18 20 23 24 25 27 28 29 30 31 32 34 36 35 35 35 36 37 37 36 36 36 37 36 36 36 35 33 33 34 33 33 32 31 33 36
11 13 14 15 17 17 17 17 17 18 19 19 21 21 23 25 26 27 28 30 32 32 33 35 36 38 39 41 41 42 42 42 42 41 41 42 41 40 41 40 39 38 38 37 36 38 36 35 35
13 14 15 16 17 18 18 18 19 20 20 22 23 25 27 28 29 31 31 32 33 34 34 35 36 37 39 40 41 42 43 44 45 45 46 46 47 47 46 45 45 44 43 43 42 39 39 40 40
17 17 17 17 16 16 16 16 17 18 19 21 23 25 26 28 29 31 33 34 35 37 38 40 41 42 43 44 44 46 47 47 47 47 47 48 49 50 51 51 51 51 49 48 47 46 44 41 42
20 21 20 19 17 17 16 17 17 18 20 22 24 26 28 29 30 32 34 36 37 38 40 42 45 47 49 50 50 52 52 52 53 52 53 54 54 54 55 55 55 55 55 54 52 52 51 48 46
23 23 23 22 21 20 19 19 21 22 25 27 29 30 32 33 35 36 37 38 40 41 43 45 46 48 49 52 54 56 57 60 61 62 61 60 60 61 61 61 62 61 60 58 58 57 57 55 53
24 24 25 25 25 25 25 24 26 28 30 32 34 35 36 37 38 40 41 43 43 44 46 47 50 51 52 54 55 57 58 60 62 66 68 68 68 66 65 66 67 67 67 66 64 62 61 61 59
26 27 27 27 28 28 28 29 31 32 34 35 35 37 39 40 41 44 45 47 49 51 52 54 55 56 58 59 60 61 63 64 66 67 68 72 75 74 72 71 71 71 72 73 72 70 67 66 65
28 28 29 29 29 30 31 29 31 34 34 35 37 39 39 41 44 47 49 50 52 54 56 59 61 63 65 67 69 70 71 73 73 73 73 72 72 75 78 80 77 76 75 76 78 77 75 72 70
30 30 32 30 32 32 34 32 35 36 37 37 39 40 42 44 46 50 51 53 55 57 59 62 64 66 68 71 74 76 79 81 82 84 84 83 83 82 81 81 83 86 83 80 80 82 81 78 77
31 32 32 34 34 35 36 35 37 38 38 39 41 42 44 47 48 50 53 55 57 59 61 63 65 68 71 73 77 80 84 87 91 94 94 95 96 92 87 85 85 86 89 91 87 85 86 87 83
34 34 34 35 38 38 38 37 38 39 39 39 40 42 45 48 50 53 55 57 58 60 61 64 68 70 73 75 79 81 84 87 88 91 96 99 100 100 99 96 91 88 88 90 95 93 90 89 90
37 38 38 41 42 42 41 38 40 40 38 39 41 44 47 51 53 55 56 59 60 60 63 68 70 73 75 78 80 81 84 86 87 90 92 95 98 100 100 101 100 99 93 92 94 95 96 95 92
38 39 41 43 44 45 43 41 43 42 40 41 44 49 50 52 55 57 57 58 60 63 66 70 73 76 78 81 83 86 88 90 92 95 99 102 104 107 109 109 107 106 103 100 97 98 98 98 97
39 40 43 45 46 47 48 46 45 42 40 44 45 48 51 54 56 58 59 61 63 67 71 72 75 79 82 84 86 88 90 92 95 99 102 105 107 108 108 107 106 104 106 106 102 99 99 101 101
39 41 42 47 50 51 52 53 50 52 51 49 51 53 54 56 59 60 61 64 69 71 74 77 80 83 85 88 89 91 93 96 101 102 103 98 89 78 71 68 66 66 67 72 77 85 97 102 103
43 45 46 51 53 53 52 54 51 54 54 53 56 57 58 60 61 61 65 68 71 75 78 81 83 85 87 89 92 95 99 101 100 91 73 58 52 52 51 51 51 51 52 52 53 59 72 90 103
47 48 53 55 54 54 53 55 54 54 55 57 56 60 62 64 63 65 67 70 74 77 80 82 84 87 88 91 96 99 99 91 74 55 44 44 45 46 47 47 49 50 52 54 53 52 56 80 93
49 54 54 56 57 55 56 58 55 57 57 57 60 61 63 65 66 67 69 72 75 77 80 83 84 87 91 95 97 93 82 63 45 41 42 43 43 46 49 51 54 55 56 57 58 58 57 60 87
55 53 52 56 57 58 58 61 58 57 57 60 61 62 65 66 67 68 71 72 74 78 81 83 85 89 93 96 88 74 55 43 41 42 41 42 46 50 53 54 56 57 57 57 57 59 60 61 64
55 56 56 58 60 61 60 61 61 59 59 60 63 64 65 66 67 68 70 72 76 79 81 84 87 91 94 85 70 51 44 44 42 41 44 47 50 53 54 55 54 54 54 55 57 58 61 63 63
57 57 58 58 62 64 62 63 60 59 58 62 62 64 65 64 65 67 70 74 77 78 81 85 89 91 84 68 51 44 44 43 41 44 47 49 51 53 51 51 50 51 54 55 57 58 61 65 66
57 58 57 60 62 61 63 63 61 58 58 64 64 64 63 64 66 67 71 74 76 79 83 86 88 83 68 52 42 42 42 41 44 47 49 50 48 47 47 48 49 50 52 54 56 57 58 63 67
56 56 58 59 58 62 63 63 59 57 63 64 64 63 63 64 65 68 72 74 78 81 83 84 84 70 54 41 39 39 39 42 45 47 48 46 45 46 47 46 45 43 42 45 49 52 55 60 65
Wind_Direction
312 313 313 296 304 306 314 326 301 276 265 266 269 264 274 271 258 261 266 272 262 250 253 255 268 270 273 279 286 288 293 300 301 306 282 282 264 254 238 233 238 235 234 239 242 245 245 251 238
322 298 279 273 266 261 279 289 282 279 280 269 273 273 262 253 260 252 267 269 269 270 268 266 271 276 278 273 279 264 269 282 285 294 295 279 274 275 263 246 238 240 240 240 238 239 244 250 250
312 312 278 274 272 269 274 279 270 269 270 279 284 292 291 283 270 264 261 263 266 266 270 275 276 280 282 283 283 279 269 264 265 280 274 275 279 275 273 268 261 250 246 243 244 240 241 241 251
302 298 294 281 273 270 269 270 272 267 268 268 273 276 275 280 288 290 281 275 272 271 270 272 272 278 279 279 279 276 277 277 272 264 263 265 268 264 262 261 264 262 255 247 242 246 244 243 244
355 326 294 288 282 277 272 271 274 278 277 275 275 270 272 280 283 285 283 282 281 276 273 275 277 272 271 275 275 273 273 273 275 273 269 266 266 263 262 258 255 255 256 258 255 244 244 249 247
346 335 322 316 309 297 285 281 280 282 286 288 286 284 282 279 281 283 283 282 282 284 285 281 279 279 279 277 276 273 271 269 268 268 269 269 269 267 263 262 257 254 253 252 253 254 250 245 245
329 328 319 314 305 299 291 287 285 285 283 281 283 282 281 279 280 281 282 283 283 282 280 279 280 279 278 275 274 274 274 271 269 267 267 266 264 265 266 263 262 260 251 251 256 255 253 253 251
307 307 307 306 305 300 295 292 291 287 284 285 284 286 283 281 281 282 284 285 285 284 283 281 281 282 282 281 280 279 275 272 270 268 268 268 266 264 264 263 261 258 259 256 255 253 255 256 253
302 297 295 292 291 289 289 291 291 290 290 289 290 289 289 290 290 291 291 290 288 288 287 285 283 281 280 280 280 279 278 276 273 271 270 268 266 265 261 260 260 259 258 258 257 255 253 255 256
300 302 297 292 289 286 288 291 290 289 291 292 292 292 293 293 292 291 289 288 288 287 288 287 286 283 282 280 277 277 276 275 274 274 273 271 269 268 267 266 261 260 257 254 255 254 253 253 253
304 301 297 291 289 292 293 291 290 292 292 291 289 291 290 288 287 286 285 285 285 283 281 280 279 280 281 281 282 281 280 278 275 272 271 271 270 268 266 266 265 262 259 257 253 253 252 249 249
307 304 302 296 293 294 295 293 294 296 297 296 296 296 297 295 293 291 288 286 286 286 286 283 280 278 275 273 274 275 275 277 278 278 274 270 267 266 264 262 262 263 262 258 255 253 252 250 248
303 302 301 298 296 299 301 301 302 303 302 301 300 300 299 297 296 295 293 293 292 291 289 287 286 284 282 281 280 278 275 273 272 273 273 273 271 268 265 263 260 258 258 258 257 254 251 250 247
302 303 302 300 301 302 300 302 303 302 302 300 299 298 297 297 295 294 294 294 293 292 290 289 288 287 286 285 284 282 280 278 276 272 267 266 267 269 268 265 261 259 256 255 254 253 253 250 247
301 301 300 300 297 297 295 300 301 301 300 299 297 295 293 292 292 291 290 290 288 288 287 288 288 288 288 289 288 286 285 283 281 278 276 272 268 264 264 266 265 262 257 255 252 251 250 250 249
299 300 300 298 297 296 294 300 298 299 298 297 296 293 291 291 291 290 290 289 287 286 286 286 285 284 285 285 284 284 283 283 282 282 282 281 278 276 271 265 263 264 262 258 253 251 249 247 248
297 298 298 297 296 295 295 300 299 300 298 298 296 292 291 292 291 290 289 287 287 287 286 285 285 285 284 283 282 282 282 281 281 280 279 278 278 277 275 272 268 262 259 259 256 252 249 247 245
297 297 297 298 298 298 299 301 303 302 301 299 296 293 293 292 291 291 290 290 290 288 287 286 285 284 284 283 283 283 284 284 283 282 281 281 280 279 277 274 269 264 260 256 256 253 250 246 245
298 300 300 300 303 303 304 307 306 306 306 302 299 298 295 294 293 293 293 293 291 291 289 288 288 289 288 288 290 290 290 289 288 286 285 282 280 278 276 274 271 267 261 256 253 252 250 247 244
299 300 302 302 304 304 306 309 308 308 306 303 302 298 296 295 294 293 295 294 293 292 292 292 293 294 295 296 295 295 293 291 290 288 286 285 283 281 280 277 274 269 265 261 254 249 247 246 244
300 301 302 304 304 304 304 303 306 302 300 302 299 298 297 295 296 297 297 297 297 296 297 298 299 300 300 299 298 296 294 292 289 288 286 283 280 278 276 274 273 272 268 263 257 249 245 242 241
302 304 306 306 303 303 302 303 301 303 306 304 301 302 301 301 300 300 301 301 301 303 302 303 304 303 302 300 298 297 295 294 292 289 286 284 281 277 273 270 268 266 264 262 260 256 245 238 238
300 302 306 307 307 302 304 302 302 304 306 301 303 304 303 304 303 303 303 304 305 305 305 305 305 304 302 301 300 299 298 296 294 290 286 276 271 269 268 266 266 264 263 259 254 249 241 238 233
298 300 301 301 305 303 300 300 302 306 305 306 304 303 304 304 305 306 306 306 307 307 307 305 305 304 303 303 303 301 300 297 293 284 275 275 274 273 271 270 268 267 265 262 258 253 245 233 230
298 298 299 301 304 303 300 299 308 306 308 305 303 304 304 306 307 307 307 308 307 307 306 306 306 305 305 305 304 304 300 294 285 281 281 279 278 278 278 277 275 273 269 265 260 255 251 243 233
294 295 299 301 302 301 299 301 306 306 306 304 305 305 306 307 308 308 308 308 308 307 307 307 307 307 307 306 307 303 294 288 287 286 282 281 282 282 281 278 275 272 269 265 260 255 250 245 242
295 297 299 301 301 299 300 303 303 309 308 305 304 307 307 307 308 308 309 309 308 308 309 309 309 309 309 309 305 296 291 291 289 285 284 286 285 284 281 278 274 270 266 265 262 256 250 245 241
293 294 298 300 299 300 301 301 308 310 309 305 305 306 306 308 308 309 310 309 309 310 310 310 311 311 311 308 299 292 291 290 287 288 290 290 288 286 283 278 275 271 268 265 262 258 252 246 240
293 293 295 296 299 300 302 305 310 310 304 305 305 306 309 309 309 310 310 310 311 311 312 312 313 313 311 304 295 292 292 291 294 295 295 294 291 287 284 283 279 275 271 266 261 259 254 246 241
295 296 295 297 300 300 303 304 309 306 305 305 307 309 308 308 309 310 311 312 312 313 313 314 314 312 308 298 294 294 295 298 299 299 298 298 296 293 290 285 282 279 269 264 264 262 257 247 239
Height
5832 5832 5831 5831 5833 5830 5829 5828 5827 5826 5825 5824 5824 5825 5826 5825 5825 5828 5826 5826 5827 5828 5827 5827 5825 5825 5827 5830 5830 5832 5832 5832 5833 5834 5834 5833 5834 5835 5836 5837 5839 5840 5842 5844 5845 5847 5846 5846 5846
5831 5830 5830 5829 5830 5828 5828 5827 5827 5825 5824 5823 5823 5822 5823 5824 5823 5823 5822 5822 5824 5824 5825 5825 5825 5824 5824 5826 5825 5828 5829 5830 5830 5831 5831 5831 5831 5832 5833 5833 5834 5836 5838 5840 5841 5842 5842 5842 5842
5829 5829 5828 5828 5828 5827 5827 5826 5825 5824 5823 5823 5822 5821 5821 5821 5821 5821 5821 5821 5822 5823 5821 5819 5820 5821 5821 5822 5822 5823 5823 5824 5826 5827 5827 5827 5828 5828 5829 5830 5832 5832 5834 5836 5837 5836 5837 5837 5838
5827 5827 5826 5826 5825 5825 5824 5824 5824 5823 5823 5822 5821 5820 5819 5819 5819 5819 5820 5820 5819 5819 5818 5819 5818 5817 5819 5818 5817 5819 5820 5819 5820 5821 5822 5822 5823 5824 5825 5825 5827 5829 5829 5830 5832 5833 5832 5833 5833
5825 5825 5824 5822 5822 5822 5821 5821 5821 5820 5820 5820 5819 5819 5819 5818 5818 5818 5817 5817 5817 5816 5815 5813 5812 5814 5815 5814 5814 5814 5815 5815 5815 5815 5816 5816 5817 5818 5819 5820 5821 5822 5824 5825 5826 5827 5828 5829 5830
5825 5824 5823 5821 5821 5819 5818 5818 5818 5817 5817 5817 5816 5816 5816 5815 5815 5814 5814 5813 5812 5811 5810 5810 5809 5809 5808 5807 5807 5808 5809 5809 5810 5809 5808 5809 5811 5811 5813 5813 5814 5815 5817 5818 5820 5821 5822 5823 5824
5821 5821 5821 5819 5818 5817 5817 5815 5815 5814 5814 5813 5812 5812 5812 5810 5809 5808 5807 5806 5806 5806 5806 5805 5805 5805 5803 5802 5802 5802 5801 5802 5802 5801 5802 5802 5803 5804 5805 5805 5806 5807 5810 5811 5814 5813 5815 5818 5818
5819 5819 5817 5816 5814 5814 5813 5812 5811 5810 5810 5809 5808 5807 5806 5805 5804 5803 5803 5802 5801 5800 5800 5799 5798 5797 5795 5795 5794 5794 5794 5794 5794 5794 5794 5794 5794 5795 5796 5796 5797 5799 5800 5802 5804 5806 5807 5808 5810
5816 5815 5814 5812 5811 5810 5808 5807 5806 5806 5804 5803 5802 5801 5801 5800 5799 5798 5797 5796 5795 5793 5792 5792 5791 5790 5788 5787 5786 5786 5786 5785 5786 5786 5786 5786 5786 5785 5786 5787 5787 5788 5790 5791 5794 5796 5798 5799 5802
5811 5810 5809 5808 5807 5805 5804 5804 5802 5801 5799 5798 5797 5795 5795 5794 5793 5792 5790 5789 5788 5787 5785 5784 5782 5780 5779 5778 5777 5776 5775 5775 5775 5774 5774 5775 5775 5775 5774 5775 5777 5778 5779 5781 5783 5785 5788 5790 5792
5807 5805 5804 5803 5802 5801 5800 5798 5796 5795 5794 5792 5790 5788 5787 5785 5784 5783 5781 5780 5779 5778 5777 5775 5774 5772 5770 5769 5767 5766 5765 5764 5763 5763 5763 5762 5762 5763 5764 5764 5764 5765 5767 5769 5771 5773 5776 5778 5782
5803 5801 5799 5798 5796 5795 5794 5793 5791 5789 5788 5785 5783 5781 5779 5777 5774 5772 5770 5768 5767 5765 5764 5762 5761 5759 5757 5756 5755 5753 5751 5750 5748 5747 5748 5748 5748 5747 5748 5750 5752 5752 5753 5755 5757 5760 5763 5766 5769
5798 5796 5794 5792 5790 5789 5788 5786 5784 5782 5780 5778 5776 5773 5771 5768 5765 5763 5761 5759 5757 5754 5752 5749 5747 5744 5742 5741 5739 5738 5737 5736 5734 5732 5731 5730 5730 5731 5732 5732 5734 5737 5738 5740 5742 5744 5748 5752 5755
5793 5791 5788 5786 5784 5782 5780 5779 5776 5775 5772 5770 5767 5765 5762 5759 5756 5753 5750 5748 5745 5742 5739 5736 5733 5731 5728 5725 5722 5720 5718 5716 5715 5714 5715 5714 5713 5712 5712 5713 5715 5717 5719 5722 5724 5727 5731 5735 5739
5786 5784 5782 5780 5777 5775 5772 5772 5769 5766 5763 5761 5758 5755 5752 5749 5746 5743 5739 5736 5732 5729 5726 5722 5719 5716 5712 5707 5703 5700 5698 5695 5694 5693 5692 5691 5693 5694 5694 5693 5693 5695 5698 5701 5704 5708 5711 5716 5721
5779 5778 5775 5773 5769 5767 5764 5765 5759 5757 5754 5751 5748 5744 5741 5737 5734 5730 5726 5723 5719 5716 5714 5710 5706 5701 5697 5693 5688 5683 5677 5674 5671 5668 5665 5664 5665 5666 5669 5672 5672 5673 5674 5678 5682 5686 5690 5695 5701
5771 5769 5767 5764 5762 5758 5755 5754 5750 5747 5744 5741 5737 5733 5729 5725 5721 5717 5714 5710 5706 5703 5699 5695 5691 5686 5682 5677 5672 5665 5660 5653 5645 5639 5639 5637 5636 5636 5638 5640 5643 5648 5651 5652 5657 5662 5667 5673 5679
5764 5761 5758 5755 5753 5749 5746 5744 5740 5736 5733 5729 5725 5721 5717 5712 5707 5703 5699 5695 5691 5687 5683 5678 5673 5668 5663 5659 5653 5647 5640 5632 5626 5621 5614 5606 5603 5601 5601 5604 5610 5615 5620 5625 5629 5635 5640 5649 5655
5756 5753 5750 5747 5743 5738 5735 5732 5728 5725 5722 5718 5714 5709 5703 5698 5693 5689 5685 5681 5676 5672 5666 5661 5655 5649 5643 5638 5632 5626 5619 5609 5601 5593 5587 5580 5575 5570 5568 5567 5569 5575 5585 5592 5598 5604 5612 5621 5629
5748 5745 5742 5738 5733 5729 5726 5724 5718 5714 5710 5705 5701 5696 5690 5685 5680 5675 5670 5666 5661 5654 5647 5641 5635 5628 5621 5614 5606 5599 5593 5583 5573 5564 5554 5547 5541 5534 5529 5527 5529 5534 5543 5552 5562 5572 5581 5591 5599
5740 5736 5732 5728 5723 5719 5715 5714 5709 5704 5699 5694 5688 5683 5677 5671 5666 5661 5655 5650 5643 5636 5629 5622 5614 5606 5598 5590 5582 5573 5564 5556 5548 5536 5526 5516 5508 5502 5498 5494 5493 5494 5498 5507 5518 5533 5546 5559 5567
5731 5727 5722 5718 5713 5708 5704 5701 5699 5692 5686 5681 5675 5670 5663 5658 5652 5646 5640 5632 5625 5617 5610 5602 5593 5584 5575 5566 5557 5547 5537 5527 5514 5502 5492 5480 5471 5468 5465 5465 5466 5467 5469 5472 5478 5489 5507 5523 5534
5722 5717 5713 5708 5703 5698 5695 5688 5687 5681 5675 5667 5662 5656 5649 5643 5637 5630 5623 5615 5607 5599 5590 5582 5573 5562 5552 5541 5529 5518 5506 5492 5479 5466 5460 5453 5451 5449 5448 5448 5449 5451 5452 5453 5456 5460 5469 5484 5499
5709 5705 5701 5696 5691 5687 5682 5676 5675 5667 5661 5656 5649 5642 5635 5627 5621 5614 5606 5597 5589 5579 5571 5562 5552 5540 5528 5516 5501 5487 5472 5459 5449 5442 5440 5438 5435 5434 5433 5433 5434 5434 5434 5436 5439 5442 5445 5451 5463
5698 5693 5686 5683 5678 5673 5669 5663 5660 5652 5649 5642 5634 5626 5620 5613 5605 5597 5587 5578 5570 5560 5550 5541 5530 5517 5503 5489 5473 5457 5443 5435 5431 5428 5426 5423 5421 5419 5417 5417 5416 5415 5415 5416 5418 5423 5427 5430 5435
5687 5681 5674 5667 5665 5662 5655 5648 5645 5640 5635 5627 5619 5612 5605 5598 5589 5579 5570 5561 5552 5542 5531 5519 5507 5493 5477 5461 5446 5433 5424 5421 5418 5415 5412 5410 5408 5405 5402 5399 5398 5396 5395 5396 5397 5402 5406 5411 5415
5675 5669 5662 5654 5650 5645 5641 5636 5628 5626 5619 5612 5604 5597 5589 5581 5572 5563 5554 5544 5534 5523 5511 5498 5485 5469 5452 5437 5425 5417 5412 5408 5406 5402 5399 5397 5393 5389 5385 5381 5379 5377 5376 5376 5377 5381 5385 5389 5396
5661 5656 5650 5642 5634 5629 5626 5618 5616 5612 5604 5595 5587 5580 5573 5565 5556 5546 5537 5526 5515 5502 5490 5476 5460 5445 5430 5419 5409 5405 5401 5397 5393 5390 5386 5381 5377 5372 5367 5363 5361 5359 5358 5357 5357 5361 5364 5368 5375
5649 5642 5637 5629 5623 5613 5609 5606 5602 5596 5587 5580 5573 5565 5558 5549 5540 5531 5520 5508 5496 5482 5468 5454 5438 5424 5413 5404 5398 5394 5389 5385 5381 5376 5370 5365 5361 5355 5351 5347 5344 5341 5339 5337 5338 5340 5343 5347 5353
5634 5628 5622 5615 5611 5601 5595 5593 5589 5581 5573 5564 5558 5551 5542 5533 5524 5514 5503 5491 5478 5464 5449 5433 5419 5408 5399 5393 5389 5383 5378 5374 5369 5363 5356 5350 5345 5339 5334 5330 5326 5323 5321 5319 5320 5320 5321 5325 5332